TUP9682 UEEE-UUWW

Flight info

Callsign TUP9682
Flight time N/A
Altitude 34000
Route K0826F340 NIBES W19 PLR M130 OSVOD T816 UHT T791 KTL T187 ROMTA
Aircraft B752/M-SDE2E3FGHIJ3J4J7RWXY/LB1

Departure

Time N/A
Airport Platon Oyunsky Yakutsk International Airport (UEEE)

Arrival

Time 2026-05-05 20:42
Airport Vnukovo International Airport (UUWW)
Time Latitude Longitude Altitude Speed Heading
2026-05-05 20:24 56.57073 37.40765 16527 ft 330 kts 202°
2026-05-05 20:24 56.54911 37.39578 16054 ft 327 kts 202°
2026-05-05 20:24 56.53136 37.38602 15646 ft 325 kts 202°
2026-05-05 20:24 56.50831 37.37338 15122 ft 323 kts 202°
2026-05-05 20:25 56.48624 37.36129 14651 ft 320 kts 202°
2026-05-05 20:25 56.46563 37.35001 14214 ft 316 kts 201°
2026-05-05 20:25 56.44944 37.34115 13849 ft 315 kts 201°
2026-05-05 20:26 56.38424 37.30557 12362 ft 309 kts 201°
2026-05-05 20:26 56.36377 37.29444 11956 ft 305 kts 201°
2026-05-05 20:26 56.34412 37.28380 11630 ft 294 kts 201°
2026-05-05 20:27 56.32434 37.27301 11314 ft 302 kts 201°
2026-05-05 20:27 56.30932 37.26483 11080 ft 307 kts 201°
2026-05-05 20:27 56.28997 37.25435 10767 ft 305 kts 201°
2026-05-05 20:27 56.27074 37.24395 10457 ft 302 kts 200°
2026-05-05 20:28 56.24856 37.23197 10097 ft 300 kts 201°
2026-05-05 20:28 56.22863 37.22120 9773 ft 299 kts 201°
2026-05-05 20:28 56.20908 37.21064 9463 ft 299 kts 201°
2026-05-05 20:28 56.18926 37.19996 9135 ft 298 kts 200°
2026-05-05 20:29 56.16931 37.18922 8860 ft 295 kts 201°
2026-05-05 20:29 56.15051 37.17911 8617 ft 295 kts 201°
2026-05-05 20:29 56.13050 37.16836 8364 ft 294 kts 200°
2026-05-05 20:29 56.11075 37.15775 8116 ft 294 kts 201°
2026-05-05 20:30 56.09123 37.14730 7975 ft 289 kts 201°
2026-05-05 20:30 56.07206 37.13702 7978 ft 291 kts 201°
2026-05-05 20:30 56.05578 37.12829 7821 ft 297 kts 200°
2026-05-05 20:30 56.04105 37.12041 7570 ft 292 kts 200°
2026-05-05 20:31 55.99983 37.09846 6989 ft 275 kts 200°
2026-05-05 20:31 55.98060 37.08821 6732 ft 268 kts 200°
2026-05-05 20:31 55.96297 37.07884 6484 ft 258 kts 201°
2026-05-05 20:32 55.94643 37.07003 6281 ft 256 kts 201°
2026-05-05 20:32 55.93171 37.06216 6145 ft 263 kts 201°
2026-05-05 20:32 55.92024 37.05605 6033 ft 265 kts 200°
2026-05-05 20:32 55.89881 37.04469 5776 ft 263 kts 200°
2026-05-05 20:33 55.87967 37.03455 5580 ft 262 kts 200°
2026-05-05 20:33 55.86232 37.02536 5404 ft 263 kts 200°
2026-05-05 20:33 55.84457 37.01597 5230 ft 262 kts 200°
2026-05-05 20:33 55.82726 37.00682 5060 ft 262 kts 200°
2026-05-05 20:34 55.80997 36.99768 5010 ft 260 kts 200°
2026-05-05 20:34 55.79254 36.98850 4979 ft 260 kts 200°
2026-05-05 20:34 55.77506 36.97928 4968 ft 260 kts 200°
2026-05-05 20:34 55.75777 36.97018 4994 ft 260 kts 200°
2026-05-05 20:35 55.74009 36.96170 4934 ft 265 kts 191°
2026-05-05 20:35 55.72129 36.96315 4757 ft 270 kts 175°
2026-05-05 20:35 55.70282 36.96812 4574 ft 266 kts 175°
2026-05-05 20:35 55.68486 36.97283 4360 ft 256 kts 175°
2026-05-05 20:36 55.66748 36.97753 4156 ft 252 kts 175°
2026-05-05 20:36 55.64994 36.98231 3969 ft 255 kts 174°
2026-05-05 20:36 55.63255 36.98712 3767 ft 249 kts 174°
2026-05-05 20:36 55.61552 36.99185 3558 ft 244 kts 174°
2026-05-05 20:37 55.59903 36.99665 3347 ft 239 kts 169°
2026-05-05 20:37 55.58841 37.00271 3202 ft 238 kts 161°
2026-05-05 20:37 55.56896 37.01634 2872 ft 205 kts 162°
2026-05-05 20:37 55.55682 37.02636 2632 ft 186 kts 144°
2026-05-05 20:38 55.55049 37.04477 2473 ft 174 kts 95°
2026-05-05 20:38 55.55203 37.06668 2574 ft 187 kts 79°
2026-05-05 20:38 55.55407 37.08434 2464 ft 189 kts 77°
2026-05-05 20:38 55.55648 37.10012 2288 ft 184 kts 72°
2026-05-05 20:39 55.55775 37.10717 2216 ft 180 kts 72°
2026-05-05 20:39 55.56158 37.12662 2038 ft 164 kts 70°
2026-05-05 20:39 55.56506 37.14308 1813 ft 151 kts 70°
2026-05-05 20:39 55.56874 37.15988 1621 ft 146 kts 70°
2026-05-05 20:40 55.57204 37.17472 1480 ft 148 kts 69°
2026-05-05 20:40 55.57489 37.18725 1343 ft 149 kts 69°
2026-05-05 20:40 55.57936 37.20678 1091 ft 144 kts 70°
2026-05-05 20:40 55.58314 37.22362 898 ft 142 kts 70°
2026-05-05 20:41 55.58672 37.23983 729 ft 142 kts 70°
2026-05-05 20:41 55.58993 37.25418 694 ft 130 kts 69°
2026-05-05 20:41 55.59205 37.26366 694 ft 81 kts 68°
2026-05-05 20:42 55.59475 37.27564 694 ft 26 kts 68°
2026-05-05 20:42 55.59540 37.27856 694 ft 24 kts 68°
2026-05-05 20:42 55.59629 37.28095 694 ft 22 kts 44°
2026-05-05 20:42 55.59743 37.28263 693 ft 17 kts 39°
2026-05-05 20:43 55.59800 37.28344 693 ft 5 kts 38°
2026-05-05 20:43 55.59831 37.28386 693 ft 5 kts 38°
2026-05-05 20:43 55.59864 37.28415 693 ft 6 kts
2026-05-05 20:43 55.59918 37.28354 694 ft 11 kts 308°
2026-05-05 20:44 55.59939 37.28242 693 ft 9 kts 266°
2026-05-05 20:44 55.59935 37.28131 693 ft 8 kts 268°
2026-05-05 20:44 55.59939 37.28027 693 ft 8 kts 279°
2026-05-05 20:44 55.59961 37.27900 693 ft 14 kts 295°
2026-05-05 20:45 55.60057 37.27784 694 ft 7 kts 34°
2026-05-05 20:45 55.60111 37.27872 694 ft 11 kts 27°
2026-05-05 20:45 55.60185 37.27853 693 ft 11 kts 342°
2026-05-05 20:46 55.60305 37.27845 693 ft 21 kts
2026-05-05 20:46 55.60425 37.27904 693 ft 16 kts 38°
2026-05-05 20:46 55.60504 37.28047 693 ft 16 kts 46°
2026-05-05 20:46 55.60586 37.28103 693 ft 12 kts 328°
2026-05-05 20:47 55.60636 37.28045 693 ft 6 kts 346°
2026-05-05 20:47 55.60678 37.28054 693 ft 5 kts 36°
2026-05-05 20:47 55.60702 37.28096 693 ft 4 kts 44°
2026-05-05 20:47 55.60703 37.28098 693 ft 0 kts 44°